BNU-1

导读

BNU-1是中国于北京时间2019年9月12日8时成功发射的自主研制卫星,由北京师范大学牵头研制,是我国首颗青少年科普卫星。该卫星定位为面向青少年的航天科普教育平台,搭载了空间环境探测、业余无线电转发等载荷,不仅可以开展空间环境探测等航天实践,更重要的是为全国青少年提供了亲手参与航天任务、开展航天探究的机会,激发青少年对航天科学的兴趣,推动航天科普教育创新发展,助力我国航天人才培养。

Basic Information
目录编号:
44529
目录名称:
BNU-1
国际标识:
2019-059B
轨道中心:
EARTH
卫星名称:
BNU-1
卫星全名:
--
卫星状态:
在轨 (已飞行2510 天)
发射日期:
2019-09-12 UTC
国别 :
中国 (CN)
星等 :
--
Orbit Information
数据来源 国际轨道数据 AOE轨道数据
星历时间 2026-07-27T21:34:05+0800
9小时前
查看轨道信息
2026-07-25T05:00:00+0800
3天前
查看轨道信息
半长轴 7108.968km 7108.97km
偏心率 0.0012008 0.0012047
轨道倾角 98.610° 98.610°
近地点辐角 249.183° 257.062°
升交点赤经 338.410° 335.668°
平近点角 110.808° 122.895°
近地点 722.294km 722.268km
远地点 739.368km 739.398km
周期 99.419分钟 99.419分钟
每日圈数 14.484149 14.484143
Detailed Information
使用方式:
暂无
2D Orbit Map
3D Orbit Map
Orbit Altitude Analysis Chart
Orbit Inclination Analysis Chart
Orbit Comprehensive Analysis Chart
View Comprehensive Chart